Multibeam Report for EX1305


Ship Name: Okeanos Explorer
Chief Scientist: Hare, Jon A.
NOAA/NMFS/NEFSC/EPD/OB
Source Organization: NOAA Office of Ocean Exploration and Research (OER)
Start Date: 2013-08-24
End Date: 2013-09-05


View ISO Metadata

Visit the full NCEI Bathymetry Viewer


Multibeam Bathymetry

Cruise Details

Project: Summer Ecosystem Monitoring Survey
Instrument: Kongsberg EM302

Data Quality

Number of Files: 228
Number of Records: 1305095
BATHYMETRY DATA Quantity Percentage
Number of Beams 563440176 100%
Number of Good Beams 553802288 98.29%
Number of Zero Beams 0 0%
Number of Flagged Beams 9637888 1.71%
AMPLITUDE DATA Quantity Percentage
Number of Beams 563440176 100%
Number of Good Beams 553802288 98.29%
Number of Zero Beams 0 0%
Number of Flagged Beams 9637888 1.71%
SIDESCAN DATA Quantity Percentage
Number of Pixels 1335668736 100%
Number of Good Pixels 1150403046 86.13%
Number of Zero Pixels 0 0%
Number of Flagged Pixels 185265690 13.87%

Navigation Totals

Total Time: 217.8204 hours
Total Track Length: 3126.2603 km
Average Speed: 14.352 km/hr (7.7495 knots)

Cruise Bounds

Northern Extent: 44.501602
Southern Extent: 40.148853
Western Extent: -70.61185
Eastern Extent: -65.44117

Limits

Minimum Sonar Depth 0 Maximum Sonar Depth 4.6498
Minimum Altitude 15.742 Maximum Altitude 3327.6453
Minimum Depth 16.8477 Maximum Depth 3429.5889
Minimum Amplitude 0 Maximum Amplitude 61.9
Minimum Sidescan 0 Maximum Sidescan 63.8

File Information

Full Resolution Bathymetry as collected (raw): 210

Files File Size Description
0000_20130826_043104_EX1305_MB.all.mb58.gz 304.65MB Kongsberg multibeam vendor format
0001_20130826_063104_EX1305_MB.all.mb58.gz 276.46MB Kongsberg multibeam vendor format
0002_20130826_083104_EX1305_MB.all.mb58.gz 240.90MB Kongsberg multibeam vendor format
0003_20130826_103105_EX1305_MB.all.mb58.gz 246.25MB Kongsberg multibeam vendor format
0004_20130826_123104_EX1305_MB.all.mb58.gz 328.92MB Kongsberg multibeam vendor format
0005_20130826_143104_EX1305_MB.all.mb58.gz 311.73MB Kongsberg multibeam vendor format
0006_20130827_020056_EX1305_MB.all.mb58.gz 277.57MB Kongsberg multibeam vendor format
0007_20130827_040057_EX1305_MB.all.mb58.gz 140.62MB Kongsberg multibeam vendor format
0008_20130827_060057_EX1305_MB.all.mb58.gz 127.17MB Kongsberg multibeam vendor format
0009_20130827_080057_EX1305_MB.all.mb58.gz 234.63MB Kongsberg multibeam vendor format
0010_20130827_100056_EX1305_MB.all.mb58.gz 311.83MB Kongsberg multibeam vendor format
0011_20130827_120057_EX1305_MB.all.mb58.gz 349.60MB Kongsberg multibeam vendor format
0012_20130827_140056_EX1305_MB.all.mb58.gz 435.83MB Kongsberg multibeam vendor format
0013_20130827_160057_EX1305_MB.all.mb58.gz 384.44MB Kongsberg multibeam vendor format
0014_20130827_180057_EX1305_MB.all.mb58.gz 339.35MB Kongsberg multibeam vendor format
0015_20130827_200057_EX1305_MB.all.mb58.gz 213.32MB Kongsberg multibeam vendor format
0016_20130827_211743_EX1305_MB.all.mb58.gz 300.39MB Kongsberg multibeam vendor format
0017_20130827_231744_EX1305_MB.all.mb58.gz 291.11MB Kongsberg multibeam vendor format
0018_20130828_011744_EX1305_MB.all.mb58.gz 292.07MB Kongsberg multibeam vendor format
0019_20130828_031743_EX1305_MB.all.mb58.gz 319.19MB Kongsberg multibeam vendor format
0020_20130828_051743_EX1305_MB.all.mb58.gz 334.71MB Kongsberg multibeam vendor format
0021_20130828_071743_EX1305_MB.all.mb58.gz 327.58MB Kongsberg multibeam vendor format
0022_20130828_091743_EX1305_MB.all.mb58.gz 288.17MB Kongsberg multibeam vendor format
0023_20130828_111744_EX1305_MB.all.mb58.gz 155.67MB Kongsberg multibeam vendor format
0024_20130828_131746_EX1305_MB.all.mb58.gz 96.03MB Kongsberg multibeam vendor format
0025_20130828_151745_EX1305_MB.all.mb58.gz 163.07MB Kongsberg multibeam vendor format
0026_20130828_171744_EX1305_MB.all.mb58.gz 199.94MB Kongsberg multibeam vendor format
0027_20130828_191743_EX1305_MB.all.mb58.gz 201.46MB Kongsberg multibeam vendor format
0028_20130828_211744_EX1305_MB.all.mb58.gz 202.83MB Kongsberg multibeam vendor format
0029_20130828_231030_EX1305_MB.all.mb58.gz 194.53MB Kongsberg multibeam vendor format
0030_20130829_011031_EX1305_MB.all.mb58.gz 184.78MB Kongsberg multibeam vendor format
0031_20130829_031031_EX1305_MB.all.mb58.gz 302.62MB Kongsberg multibeam vendor format
0032_20130829_051030_EX1305_MB.all.mb58.gz 418.11MB Kongsberg multibeam vendor format
0033_20130829_071030_EX1305_MB.all.mb58.gz 456.16MB Kongsberg multibeam vendor format
0034_20130829_091030_EX1305_MB.all.mb58.gz 126.06MB Kongsberg multibeam vendor format
0035_20130829_111035_EX1305_MB.all.mb58.gz 77.79MB Kongsberg multibeam vendor format
0036_20130829_131033_EX1305_MB.all.mb58.gz 79.56MB Kongsberg multibeam vendor format
0037_20130829_151035_EX1305_MB.all.mb58.gz 41.53MB Kongsberg multibeam vendor format
0038_20130829_160627_EX1305_MB.all.mb58.gz 213.94MB Kongsberg multibeam vendor format
0039_20130829_180626_EX1305_MB.all.mb58.gz 123.70MB Kongsberg multibeam vendor format
0040_20130829_190626_EX1305_MB.all.mb58.gz 211.42MB Kongsberg multibeam vendor format
0041_20130829_200626_EX1305_MB.all.mb58.gz 213.31MB Kongsberg multibeam vendor format
0042_20130829_210626_EX1305_MB.all.mb58.gz 176.47MB Kongsberg multibeam vendor format
0043_20130829_220626_EX1305_MB.all.mb58.gz 112.43MB Kongsberg multibeam vendor format
0044_20130829_230626_EX1305_MB.all.mb58.gz 108.82MB Kongsberg multibeam vendor format
0045_20130830_000626_EX1305_MB.all.mb58.gz 100.13MB Kongsberg multibeam vendor format
0046_20130830_010626_EX1305_MB.all.mb58.gz 100.29MB Kongsberg multibeam vendor format
0047_20130830_020626_EX1305_MB.all.mb58.gz 104.08MB Kongsberg multibeam vendor format
0048_20130830_030627_EX1305_MB.all.mb58.gz 101.23MB Kongsberg multibeam vendor format
0049_20130830_040626_EX1305_MB.all.mb58.gz 109.36MB Kongsberg multibeam vendor format
0050_20130830_050626_EX1305_MB.all.mb58.gz 107.37MB Kongsberg multibeam vendor format
0051_20130830_060626_EX1305_MB.all.mb58.gz 105.89MB Kongsberg multibeam vendor format
0052_20130830_070626_EX1305_MB.all.mb58.gz 107.57MB Kongsberg multibeam vendor format
0053_20130830_080626_EX1305_MB.all.mb58.gz 103.14MB Kongsberg multibeam vendor format
0054_20130830_090626_EX1305_MB.all.mb58.gz 89.81MB Kongsberg multibeam vendor format
0055_20130830_100627_EX1305_MB.all.mb58.gz 87.62MB Kongsberg multibeam vendor format
0056_20130830_110627_EX1305_MB.all.mb58.gz 85.72MB Kongsberg multibeam vendor format
0057_20130830_120626_EX1305_MB.all.mb58.gz 85.46MB Kongsberg multibeam vendor format
0058_20130830_130626_EX1305_MB.all.mb58.gz 84.66MB Kongsberg multibeam vendor format
0059_20130830_140627_EX1305_MB.all.mb58.gz 84.94MB Kongsberg multibeam vendor format
0060_20130830_150626_EX1305_MB.all.mb58.gz 86.54MB Kongsberg multibeam vendor format
0061_20130830_160626_EX1305_MB.all.mb58.gz 97.96MB Kongsberg multibeam vendor format
0062_20130830_170626_EX1305_MB.all.mb58.gz 104.91MB Kongsberg multibeam vendor format
0063_20130830_180626_EX1305_MB.all.mb58.gz 100.96MB Kongsberg multibeam vendor format
0064_20130830_190626_EX1305_MB.all.mb58.gz 116.09MB Kongsberg multibeam vendor format
0065_20130830_200626_EX1305_MB.all.mb58.gz 124.32MB Kongsberg multibeam vendor format
0066_20130830_210626_EX1305_MB.all.mb58.gz 124.18MB Kongsberg multibeam vendor format
0067_20130830_220626_EX1305_MB.all.mb58.gz 120.66MB Kongsberg multibeam vendor format
0068_20130830_230626_EX1305_MB.all.mb58.gz 127.52MB Kongsberg multibeam vendor format
0069_20130831_000626_EX1305_MB.all.mb58.gz 126.15MB Kongsberg multibeam vendor format
0070_20130831_010626_EX1305_MB.all.mb58.gz 113.08MB Kongsberg multibeam vendor format
0071_20130831_020626_EX1305_MB.all.mb58.gz 110.60MB Kongsberg multibeam vendor format
0072_20130831_030626_EX1305_MB.all.mb58.gz 107.04MB Kongsberg multibeam vendor format
0073_20130831_040627_EX1305_MB.all.mb58.gz 101.57MB Kongsberg multibeam vendor format
0074_20130831_050627_EX1305_MB.all.mb58.gz 104.43MB Kongsberg multibeam vendor format
0075_20130831_060626_EX1305_MB.all.mb58.gz 97.09MB Kongsberg multibeam vendor format
0076_20130831_070627_EX1305_MB.all.mb58.gz 64.40MB Kongsberg multibeam vendor format
0077_20130831_074703_EX1305_MB.all.mb58.gz 33.08MB Kongsberg multibeam vendor format
0078_20130831_080232_EX1305_MB.all.mb58.gz 128.72MB Kongsberg multibeam vendor format
0079_20130831_085503_EX1305_MB.all.mb58.gz 17.00MB Kongsberg multibeam vendor format
0080_20130831_090155_EX1305_MB.all.mb58.gz 140.05MB Kongsberg multibeam vendor format
0081_20130831_095850_EX1305_MB.all.mb58.gz 23.03MB Kongsberg multibeam vendor format
0082_20130831_100808_EX1305_MB.all.mb58.gz 136.62MB Kongsberg multibeam vendor format
0083_20130831_110401_EX1305_MB.all.mb58.gz 28.61MB Kongsberg multibeam vendor format
0084_20130831_111538_EX1305_MB.all.mb58.gz 75.08MB Kongsberg multibeam vendor format
0085_20130831_114544_EX1305_MB.all.mb58.gz 10.11MB Kongsberg multibeam vendor format
0086_20130831_114956_EX1305_MB.all.mb58.gz 73.88MB Kongsberg multibeam vendor format
0087_20130831_121924_EX1305_MB.all.mb58.gz 78.14MB Kongsberg multibeam vendor format
0088_20130831_125048_EX1305_MB.all.mb58.gz 10.11MB Kongsberg multibeam vendor format
0089_20130831_125456_EX1305_MB.all.mb58.gz 118.42MB Kongsberg multibeam vendor format
0090_20130831_134313_EX1305_MB.all.mb58.gz 11.94MB Kongsberg multibeam vendor format
0091_20130831_134807_EX1305_MB.all.mb58.gz 38.96MB Kongsberg multibeam vendor format
0092_20130831_140329_EX1305_MB.all.mb58.gz 11.35MB Kongsberg multibeam vendor format
0093_20130831_140803_EX1305_MB.all.mb58.gz 42.83MB Kongsberg multibeam vendor format
0094_20130831_142446_EX1305_MB.all.mb58.gz 9.65MB Kongsberg multibeam vendor format
0095_20130831_142832_EX1305_MB.all.mb58.gz 49.74MB Kongsberg multibeam vendor format
0096_20130831_144750_EX1305_MB.all.mb58.gz 13.44MB Kongsberg multibeam vendor format
0097_20130831_145307_EX1305_MB.all.mb58.gz 68.29MB Kongsberg multibeam vendor format
0098_20130831_151920_EX1305_MB.all.mb58.gz 11.56MB Kongsberg multibeam vendor format
0099_20130831_152351_EX1305_MB.all.mb58.gz 70.25MB Kongsberg multibeam vendor format
0100_20130831_155033_EX1305_MB.all.mb58.gz 150.85MB Kongsberg multibeam vendor format
0101_20130831_165032_EX1305_MB.all.mb58.gz 152.20MB Kongsberg multibeam vendor format
0102_20130831_175032_EX1305_MB.all.mb58.gz 154.59MB Kongsberg multibeam vendor format
0103_20130831_185032_EX1305_MB.all.mb58.gz 154.63MB Kongsberg multibeam vendor format
0104_20130831_195033_EX1305_MB.all.mb58.gz 156.83MB Kongsberg multibeam vendor format
0105_20130831_205033_EX1305_MB.all.mb58.gz 158.75MB Kongsberg multibeam vendor format
0106_20130831_215032_EX1305_MB.all.mb58.gz 140.89MB Kongsberg multibeam vendor format
0107_20130831_225033_EX1305_MB.all.mb58.gz 102.20MB Kongsberg multibeam vendor format
0108_20130831_235032_EX1305_MB.all.mb58.gz 117.31MB Kongsberg multibeam vendor format
0109_20130901_005032_EX1305_MB.all.mb58.gz 129.25MB Kongsberg multibeam vendor format
0110_20130901_015033_EX1305_MB.all.mb58.gz 151.07MB Kongsberg multibeam vendor format
0111_20130901_025032_EX1305_MB.all.mb58.gz 189.57MB Kongsberg multibeam vendor format
0112_20130901_035032_EX1305_MB.all.mb58.gz 153.32MB Kongsberg multibeam vendor format
0113_20130901_045032_EX1305_MB.all.mb58.gz 135.39MB Kongsberg multibeam vendor format
0114_20130901_055032_EX1305_MB.all.mb58.gz 128.68MB Kongsberg multibeam vendor format
0115_20130901_065032_EX1305_MB.all.mb58.gz 114.41MB Kongsberg multibeam vendor format
0116_20130901_075032_EX1305_MB.all.mb58.gz 121.40MB Kongsberg multibeam vendor format
0117_20130901_085032_EX1305_MB.all.mb58.gz 110.95MB Kongsberg multibeam vendor format
0118_20130901_095032_EX1305_MB.all.mb58.gz 145.48MB Kongsberg multibeam vendor format
0119_20130901_105032_EX1305_MB.all.mb58.gz 181.97MB Kongsberg multibeam vendor format
0120_20130901_115032_EX1305_MB.all.mb58.gz 134.79MB Kongsberg multibeam vendor format
0121_20130901_125033_EX1305_MB.all.mb58.gz 125.75MB Kongsberg multibeam vendor format
0122_20130901_135033_EX1305_MB.all.mb58.gz 133.43MB Kongsberg multibeam vendor format
0123_20130901_145033_EX1305_MB.all.mb58.gz 121.07MB Kongsberg multibeam vendor format
0124_20130901_155033_EX1305_MB.all.mb58.gz 49.57MB Kongsberg multibeam vendor format
0125_20130901_161637_EX1305_MB.all.mb58.gz 108.82MB Kongsberg multibeam vendor format
0126_20130901_171637_EX1305_MB.all.mb58.gz 10.54MB Kongsberg multibeam vendor format
0127_20130901_172208_EX1305_MB.all.mb58.gz 105.21MB Kongsberg multibeam vendor format
0128_20130901_182208_EX1305_MB.all.mb58.gz 30.40MB Kongsberg multibeam vendor format
0129_20130901_183934_EX1305_MB.all.mb58.gz 6.81MB Kongsberg multibeam vendor format
0130_20130901_184328_EX1305_MB.all.mb58.gz 102.71MB Kongsberg multibeam vendor format
0131_20130901_194327_EX1305_MB.all.mb58.gz 18.40MB Kongsberg multibeam vendor format
0132_20130901_195407_EX1305_MB.all.mb58.gz 108.56MB Kongsberg multibeam vendor format
0133_20130901_205407_EX1305_MB.all.mb58.gz 21.53MB Kongsberg multibeam vendor format
0134_20130901_210616_EX1305_MB.all.mb58.gz 9.55MB Kongsberg multibeam vendor format
0135_20130901_211139_EX1305_MB.all.mb58.gz 105.77MB Kongsberg multibeam vendor format
0136_20130901_221139_EX1305_MB.all.mb58.gz 7.37MB Kongsberg multibeam vendor format
0137_20130901_221537_EX1305_MB.all.mb58.gz 121.85MB Kongsberg multibeam vendor format
0138_20130901_231537_EX1305_MB.all.mb58.gz 131.53MB Kongsberg multibeam vendor format
0139_20130902_001538_EX1305_MB.all.mb58.gz 123.99MB Kongsberg multibeam vendor format
0140_20130902_011538_EX1305_MB.all.mb58.gz 112.57MB Kongsberg multibeam vendor format
0141_20130902_021538_EX1305_MB.all.mb58.gz 104.45MB Kongsberg multibeam vendor format
0142_20130902_031537_EX1305_MB.all.mb58.gz 117.04MB Kongsberg multibeam vendor format
0143_20130902_041538_EX1305_MB.all.mb58.gz 117.25MB Kongsberg multibeam vendor format
0144_20130902_051538_EX1305_MB.all.mb58.gz 125.64MB Kongsberg multibeam vendor format
0145_20130902_061538_EX1305_MB.all.mb58.gz 125.51MB Kongsberg multibeam vendor format
0146_20130902_071538_EX1305_MB.all.mb58.gz 130.35MB Kongsberg multibeam vendor format
0147_20130902_081538_EX1305_MB.all.mb58.gz 135.07MB Kongsberg multibeam vendor format
0148_20130902_091537_EX1305_MB.all.mb58.gz 116.34MB Kongsberg multibeam vendor format
0149_20130902_101538_EX1305_MB.all.mb58.gz 119.25MB Kongsberg multibeam vendor format
0150_20130902_111538_EX1305_MB.all.mb58.gz 129.21MB Kongsberg multibeam vendor format
0151_20130902_121538_EX1305_MB.all.mb58.gz 115.04MB Kongsberg multibeam vendor format
0152_20130902_131538_EX1305_MB.all.mb58.gz 106.55MB Kongsberg multibeam vendor format
0153_20130902_141538_EX1305_MB.all.mb58.gz 106.38MB Kongsberg multibeam vendor format
0154_20130902_151538_EX1305_MB.all.mb58.gz 107.07MB Kongsberg multibeam vendor format
0155_20130902_161538_EX1305_MB.all.mb58.gz 25.47MB Kongsberg multibeam vendor format
0156_20130902_171445_EX1305_MB.all.mb58.gz 121.99MB Kongsberg multibeam vendor format
0157_20130902_181444_EX1305_MB.all.mb58.gz 126.88MB Kongsberg multibeam vendor format
0158_20130902_191445_EX1305_MB.all.mb58.gz 117.37MB Kongsberg multibeam vendor format
0159_20130902_201445_EX1305_MB.all.mb58.gz 124.50MB Kongsberg multibeam vendor format
0160_20130902_211445_EX1305_MB.all.mb58.gz 107.25MB Kongsberg multibeam vendor format
0161_20130902_221445_EX1305_MB.all.mb58.gz 101.69MB Kongsberg multibeam vendor format
0162_20130902_231445_EX1305_MB.all.mb58.gz 109.07MB Kongsberg multibeam vendor format
0163_20130903_001445_EX1305_MB.all.mb58.gz 114.48MB Kongsberg multibeam vendor format
0164_20130903_011445_EX1305_MB.all.mb58.gz 107.76MB Kongsberg multibeam vendor format
0165_20130903_021445_EX1305_MB.all.mb58.gz 104.78MB Kongsberg multibeam vendor format
0166_20130903_031445_EX1305_MB.all.mb58.gz 104.41MB Kongsberg multibeam vendor format
0167_20130903_041444_EX1305_MB.all.mb58.gz 112.10MB Kongsberg multibeam vendor format
0168_20130903_051445_EX1305_MB.all.mb58.gz 117.67MB Kongsberg multibeam vendor format
0169_20130903_061445_EX1305_MB.all.mb58.gz 107.06MB Kongsberg multibeam vendor format
0170_20130903_071445_EX1305_MB.all.mb58.gz 99.59MB Kongsberg multibeam vendor format
0171_20130903_081444_EX1305_MB.all.mb58.gz 96.38MB Kongsberg multibeam vendor format
0172_20130903_091445_EX1305_MB.all.mb58.gz 95.47MB Kongsberg multibeam vendor format
0173_20130903_101445_EX1305_MB.all.mb58.gz 95.46MB Kongsberg multibeam vendor format
0174_20130903_111445_EX1305_MB.all.mb58.gz 93.80MB Kongsberg multibeam vendor format
0175_20130903_121445_EX1305_MB.all.mb58.gz 39.77MB Kongsberg multibeam vendor format
0176_20130903_124002_EX1305_MB.all.mb58.gz 93.98MB Kongsberg multibeam vendor format
0177_20130903_134002_EX1305_MB.all.mb58.gz 13.27MB Kongsberg multibeam vendor format
0178_20130903_134823_EX1305_MB.all.mb58.gz 95.14MB Kongsberg multibeam vendor format
0179_20130903_144823_EX1305_MB.all.mb58.gz 101.04MB Kongsberg multibeam vendor format
0180_20130903_154824_EX1305_MB.all.mb58.gz 44.31MB Kongsberg multibeam vendor format
0181_20130903_161623_EX1305_MB.all.mb58.gz 10.34MB Kongsberg multibeam vendor format
0182_20130903_162246_EX1305_MB.all.mb58.gz 95.29MB Kongsberg multibeam vendor format
0183_20130903_172246_EX1305_MB.all.mb58.gz 118.56MB Kongsberg multibeam vendor format
0184_20130903_182247_EX1305_MB.all.mb58.gz 90.43MB Kongsberg multibeam vendor format
0185_20130903_185804_EX1305_MB.all.mb58.gz 19.26MB Kongsberg multibeam vendor format
0186_20130903_190544_EX1305_MB.all.mb58.gz 144.50MB Kongsberg multibeam vendor format
0187_20130903_200544_EX1305_MB.all.mb58.gz 139.06MB Kongsberg multibeam vendor format
0188_20130903_210544_EX1305_MB.all.mb58.gz 49.54MB Kongsberg multibeam vendor format
0189_20130903_212637_EX1305_MB.all.mb58.gz 139.97MB Kongsberg multibeam vendor format
0190_20130903_222637_EX1305_MB.all.mb58.gz 138.31MB Kongsberg multibeam vendor format
0191_20130903_232637_EX1305_MB.all.mb58.gz 72.17MB Kongsberg multibeam vendor format
0192_20130903_235705_EX1305_MB.all.mb58.gz 134.85MB Kongsberg multibeam vendor format
0193_20130904_005704_EX1305_MB.all.mb58.gz 129.86MB Kongsberg multibeam vendor format
0194_20130904_015704_EX1305_MB.all.mb58.gz 133.83MB Kongsberg multibeam vendor format
0195_20130904_025705_EX1305_MB.all.mb58.gz 63.46MB Kongsberg multibeam vendor format
0196_20130904_032604_EX1305_MB.all.mb58.gz 137.39MB Kongsberg multibeam vendor format
0197_20130904_042604_EX1305_MB.all.mb58.gz 139.55MB Kongsberg multibeam vendor format
0198_20130904_052605_EX1305_MB.all.mb58.gz 146.09MB Kongsberg multibeam vendor format
0199_20130904_062604_EX1305_MB.all.mb58.gz 193.77MB Kongsberg multibeam vendor format
0200_20130904_072604_EX1305_MB.all.mb58.gz 226.18MB Kongsberg multibeam vendor format
0201_20130904_082604_EX1305_MB.all.mb58.gz 216.45MB Kongsberg multibeam vendor format
0202_20130904_092604_EX1305_MB.all.mb58.gz 235.15MB Kongsberg multibeam vendor format
0203_20130904_102604_EX1305_MB.all.mb58.gz 222.51MB Kongsberg multibeam vendor format
0204_20130904_112604_EX1305_MB.all.mb58.gz 282.54MB Kongsberg multibeam vendor format
0205_20130904_122604_EX1305_MB.all.mb58.gz 250.06MB Kongsberg multibeam vendor format
0206_20130904_132604_EX1305_MB.all.mb58.gz 271.81MB Kongsberg multibeam vendor format
0207_20130904_142604_EX1305_MB.all.mb58.gz 247.11MB Kongsberg multibeam vendor format
0208_20130904_152604_EX1305_MB.all.mb58.gz 259.67MB Kongsberg multibeam vendor format
0209_20130904_162604_EX1305_MB.all.mb58.gz 260.76MB Kongsberg multibeam vendor format

Products: 7

Files File Size Description
EX1305_All_50m_WGS84_ARCGRID.asc.gz 3.93MB ESRI Arc ASCII
EX1305_All_50m_WGS84_XYZ.sd.gz 5.75MB Fledermaus surface
EX1305_All_50m_WGS84_XYZ.xyz.gz 6.91MB xyz grid file provided by the originator
EX1305_JordanBasin_20m_083113_LR.tif.gz 2.13MB GeoTIFF survey image
JordanBasin_20m_EX1305_WGS84_ArcGrid.asc.gz 0.77MB ESRI Arc ASCII
SchoodicRidge_10m_WGS84.tif.gz 1.24MB GeoTIFF survey image
SchoodicRidge_10m_WGS84_ArcGrid.asc.gz 2.62MB ESRI Arc ASCII

Metadata Files: 7

Files File Size Description
EX1305_Multibeam.xml NGDC created ISO metadata
EX1305_Mapping_Data_Report.pdf 4.01MB PDF metadata file
EX1305_COLLECTION_UNRESOLVED.xml 17.0KB XML metadata file
EX1305_Multibeam_COLLECTION_UNRESOLVED.xml 15.6KB XML metadata file
EX1305_Processed_Multibeam_COLLECTION_UNRESOLVED.xml 21.9KB XML metadata file
EX1305_Profile_COLLECTION_UNRESOLVED.xml 14.8KB XML metadata file
v1_file_metadata.tar.gz 60.1KB File level metadata

Ancillary Files: 3

Files File Size Description
asvp.tar.gz 35.0KB Sound Speed Profiles (SSP or SVP)
ctd.tar.gz 1.39MB Conductivity, Temperature, Depth (CTD) data
xbt.tar.gz 100.8KB Expendable Bathythermograph (XBT) data

Water Column Sonar Data

Water Column Sonar Data Available: WCSD Map Viewer